STARLINK-5132, 54007

Orbit data source: Space-Track

STARLINK-5132, 54007 is a payload satellite owned by SpaceX/Seattle (US) in LEO that was launched on Wed, 05 Oct 2022 UTC via an FALCON 9 launch vehicle from the Air Force Western Test Range (AFWTR). Payload-class satellites include a variety of spacecraft equipped with specific instruments for various scientific and technological missions. These include communications satellites like Starlink; space stations such as the ISS; scientific satellites like the Hubble; Earth observation satellites from companies like Planet Labs, Umbra, and HawkEye 360; GPS; miniature CubeSats for education and research; and military/defense satellites.

Loading next visibility...
Identifier
54007, 2022-125AV
Orbit
LEO
Country
Flag of USUS
Related business
Manufacturer
SpaceX/Seattle
Mission
Operational Commercial Communications
Bus & Motor
STARLINK, Unknown motor
Mass
305 kg wet, ~290 kg dry
Launch date (UTC)
2022-10-05 (4 years ago)
Launch vehicle
FALCON 9
Launch site
Air Force Western Test Range (AFWTR)
Object type
Payload
Rocket body
Debris
Shape & HBR
Box + 1 Pan, 10.1 m
Radar Cross Section
13.562 m², Large (>1 m²)

Expand to show TLE details & history
Last TLE update: 3 days ago

TLE from 3 days ago
0 STARLINK-5132
1 54007U 22125AV  26170.27585065 -.00000348  00000-0 -37462-5 0  9996
2 54007  53.1604 117.6190 0001367  89.2217 270.8931 15.08834397204800
Epoch: 2026-06-19T06:37Z
TLE epoch observation values (Epoch: 2026-06-19T06:37:13.496Z)
Latitude
-0.00001°
Longitude
110.8056°
Altitude
540.637 km
Speed
7.593 km/s
True Right ascension
07h 50m 28s
True Declination
0° 00' 00"
Sunlit
Object was in daylight at epoch
Visualization orbit readout
Latitude
Unknown
Longitude
Unknown
Altitude
Unknown
Speed
Unknown
Apparent Right ascension
Unknown
Apparent Declination
Unknown
Sunlit
N/A
Visualization observer readout
Local Sidereal Time
21:24:18
Azimuth
Unknown
Elevation
Unknown
Doppler factor
Unknown
Orbital elements
Apogee altitude
540.96 km
Perigee altitude
539.069 km
Semi-major axis
6,918.152 km
Eccentricity
0.00014
Inclination
53.1604°
RAAN
117.619°
Arg. of periapsis
89.2217°
True anomaly
270.87744°
Mean anomaly
270.8931°
Eccentric anomaly
270.88527°
Mean motion
3.77188 °/min
Orbital period
95.44 mins
BSTAR
-0.0000037462
Loading maneuver chart data...
Computing Atmospheric mass density...
Loading historical data...
Loading historical data...
Loading historical data...
Loading historical data...
Loading historical data...
Loading historical data...
Loading historical data...

Documentation

Showing up to 5 results
|